SL-14 DEB

Satellite information

Favourite Embed

Satellite Type and Status

DEBRISIN ORBIT

Key statistics

Satellite SL-14 DEB at a glance.

Uptime

13776

Days in orbit

Revolutions

≈ 14.0

Per day

Orbit

LEO

Low Earth Orbit

Inclination

82.6

Latest

Satellite identification and parameters

Extended collection of information and parameters for SL-14 DEB.

Object identification

Identified? True

Debris? True

Object name: SL-14 DEB

International designator: 1987-068DB

Object number (NORAD): 39975

Object ID (CCSDS): 39975

Country: COMMONWEALTH OF INDEPENDENT STATES (CIS)

Current information (Y/N): Y

RCS size: SMALL

Orbital parameters

Period: 102.561 minutes

Inclination: 82.5963 deg

SMA: 7257.966 km

Apoapsis: 949.465 km

Periapsis: 810.197 km

RAAN: 148.9188 deg

Eccentricy: 0.0095941

Argument of periapsis: 256.6815 deg

Mean anomaly: 102.3645 deg

Mean motion: 14.0404289 rev/day

Mean motion (dot): 0.0000155 rev/day2

B* drag term: 0.00093203 1/REarth

Two-line elements (TLE)

Creation date: May 2, 2025, 12:26 a.m.

Reference frame: TEME

Reference center: EARTH

Epoch: April 14, 2025, 8:43 p.m. UTC

TLE line 0: 0 SL-14 DEB

TLE line 1: 1 39975U 87068DB 25104.86346422 .00001550 00000-0 93203-3 0 9990

TLE line 2: 2 39975 82.5963 148.9188 0095941 256.6815 102.3645 14.04042890582455

Live tracking on map

Real-time ground track for satellite SL-14 DEB.

In-orbit conjunctions

A list of the most updated potential collisions computed for object SL-14 DEB.

Target Orbit TCA Probability of collision Miss distance Type
CZ-4B DEB LEO 2024-11-10 06:52:37 0.0002190917 936.0 (m) DEBRIS
COSMOS 1275 DEB LEO 2024-06-26 00:34:45 0.0001116734 343.0 (m) DEBRIS

Associated space launch

Second generation soviet meteorological satellite

SL-14 DEB was lifted into orbit during the mission ‘Tsiklon-3 | Meteor-2 16’, on board a Tsiklon-3 space rocket.

The launch took place on Aug. 18, 1987, 2:27 a.m. from 32/1.

For more information about the launch, click the button.

Launch to space Tsiklon-3 | Meteor-2 16
Tsiklon-3 | Meteor-2 16

Agency: N/A

Status: Launch Successful

Launch date: Aug. 18, 1987, 2:27 a.m. UTC

Rocket: Tsiklon-3

Launch pad: 32/1

Location: Plesetsk Cosmodrome, Russian Federation

...

Latest news about this satellite

There are no fresh news available about this satellite. Check back as we update our databases every day.


Newsletter sign-up

Weekly statistics, charts and insights to help you stay on top of the space industry.